Tracking 17145 objects as of 24-May-2015
HD Live streaming from Space Station

UNAMSAT

Track UNAMSAT now!
10-day predictions
UNAMSAT is classified as:


NORAD ID: 24305
Int'l Code: 1996-052B
Perigee: 971.4 km
Apogee: 1,015.2 km
Inclination: 82.9 °
Period: 104.8 minutes
Semi major axis: 7364 km
RCS: 0.174 m2 (medium)
Launch date: September 5, 1996
Source: Mexico (MEX)
Your satellite tracking list
Your tracking list is empty





NASA's NSSDC Master Catalog

Two Line Element Set (TLE):
1 24305U 96052B   15144.18724177  .00000038  00000-0  24250-4 0  9996
2 24305 082.9370 191.1526 0029675 347.0955 071.0570 13.73743526938171

Source of the keplerian elements: AFSPC

N2YO: 354